Flag for Austria Weather past 2 weeks in Waidhofen an der Thaya, Lower Austria, Austria

Now
44 °F

Partly sunny.


Feels Like: 40 °F
Forecast: 28 / 43 °F
Wind: 7 mph from Northwest

Location: Retz

Current Time: Feb 28, 2015 at 2:34:08 PM

Latest Report: Feb 28, 2015 at 1:00 PM


Visibility: 5 mi

Pressure: 30.11 "Hg

Humidity: 68%

Dew point: 34 °F

Location of Waidhofen an der ThayaLocation

Historic Weather in Waidhofen an der Thaya — Graph

°F

Waidhofen an der Thaya temperature yesterday

Maximum temperature yesterday: 45 °F (at 4:00 PM)
Minimum temperature yesterday: 36 °F (at 7:00 AM)
Average temperature yesterday: 40 °F

Past Weeks' High & Low Weather Summary

 TemperatureHumidityPressure
High46 °F (Feb 16, 2:00 PM)100% (Feb 20, 10:00 AM)30.78 "Hg (Feb 20, 10:00 AM)
Low26 °F (Feb 20, 6:00 AM)51% (Feb 21, 4:00 PM)29.56 "Hg (Feb 23, 4:00 PM)
Average37 °F81%30.09 "Hg
* Reported Feb 13 1:00 PM — Feb 28 1:00 PM, Waidhofen an der Thaya, Weather by CustomWeather, © 2015

Note: Actual official high and low records may vary slightly from our data, if they occured in-between our weather recording intervals... More about our weather records

Advertising

Waidhofen an der Thaya weather history for previous 24 hours

 ConditionsComfort  
Time TempWeatherWind HumidityBarometerVisibility
1:00 PM
Sat, Feb 28
44 °FPartly sunny.7 mph68%30.11 "Hg5 mi
12:00 PM43 °FQuite cool.8 mph70%30.12 "HgN/A
11:00 AM43 °FQuite cool.7 mph73%30.12 "HgN/A
10:00 AM40 °FChilly.8 mph77%30.12 "HgN/A
9:00 AM38 °FChilly.7 mph80%30.12 "HgN/A
8:00 AM37 °FChilly.7 mph82%30.11 "HgN/A
7:00 AM36 °FLow clouds.8 mph84%30.08 "Hg7 mi
6:00 AM35 °FChilly.8 mph84%30.07 "HgN/A
5:00 AM35 °FChilly.7 mph86%30.06 "HgN/A
3:00 AM38 °FChilly.7 mph86%30.04 "HgN/A
2:00 AM38 °FChilly.2 mph88%30.04 "HgN/A
1:00 AM38 °FChilly.2 mph87%30.04 "HgN/A
12:00 AM39 °FChilly.2 mph85%30.03 "HgN/A
11:00 PM
Fri, Feb 27
40 °FChilly.1 mph84%30.02 "HgN/A
9:00 PM41 °FQuite cool.2 mph83%29.99 "HgN/A
8:00 PM42 °FQuite cool.2 mph84%29.97 "HgN/A
7:00 PM43 °FQuite cool.2 mph78%29.95 "HgN/A
6:00 PM44 °FQuite cool.3 mph77%29.92 "HgN/A
5:00 PM45 °FQuite cool.2 mph73%29.90 "HgN/A
4:00 PM45 °FQuite cool.5 mph74%29.88 "HgN/A
3:00 PM45 °FQuite cool.3 mph71%29.88 "HgN/A
2:00 PM44 °FQuite cool.3 mph73%29.88 "HgN/A
Weather by CustomWeather, © 2015

See weather overviewHow to use our weather pages